�������l�o���
Date,Time,MP-1(��Sv/h),MP-2(��Sv/h),MP-3(��Sv/h),MP-4(��Sv/h),MP-5(��Sv/h),MP-6(��Sv/h),MP-7(��Sv/h),MP-8(��Sv/h),����,����(m/s),���J
2017/07/27,00:00,0.959,1.505,1.014,1.793,1.241,0.520,0.946,0.875,�k�k��,5.7,��
2017/07/27,00:10,0.961,1.504,1.014,1.794,1.241,0.518,0.946,0.876,�k�k��,5.6,��
2017/07/27,00:20,0.960,1.502,1.015,1.795,1.242,0.517,0.946,0.873,�k�k��,5.5,��
2017/07/27,00:30,0.959,1.504,1.017,1.796,1.242,0.519,0.945,0.875,�k�k��,6.1,��
2017/07/27,00:40,0.957,1.505,1.014,1.796,1.241,0.519,0.944,0.876,�k�k��,6.3,��
2017/07/27,00:50,0.958,1.506,1.013,1.794,1.243,0.520,0.947,0.877,�k�k��,5.6,��
2017/07/27,01:00,0.959,1.504,1.014,1.794,1.242,0.519,0.945,0.876,�k�k��,5.6,��
2017/07/27,01:10,0.958,1.504,1.012,1.797,1.242,0.520,0.948,0.875,�k�k��,6.0,��
2017/07/27,01:20,0.958,1.505,1.014,1.796,1.241,0.519,0.946,0.874,�k�k��,5.9,��
2017/07/27,01:30,0.958,1.505,1.014,1.795,1.242,0.518,0.944,0.875,�k�k��,6.1,��
2017/07/27,01:40,0.960,1.503,1.013,1.798,1.242,0.519,0.945,0.877,�k�k��,6.9,��
2017/07/27,01:50,0.961,1.504,1.014,1.795,1.240,0.518,0.945,0.876,�k�k��,6.5,��
2017/07/27,02:00,0.959,1.507,1.015,1.794,1.238,0.518,0.947,0.875,�k�k��,6.3,��
2017/07/27,02:10,0.958,1.507,1.014,1.799,1.241,0.517,0.946,0.875,�k�k��,5.8,��
2017/07/27,02:20,0.959,1.504,1.013,1.795,1.240,0.518,0.946,0.877,�k�k��,5.7,��
2017/07/27,02:30,0.958,1.504,1.013,1.795,1.240,0.519,0.946,0.874,�k�k��,5.8,��
2017/07/27,02:40,0.959,1.504,1.014,1.798,1.242,0.518,0.943,0.875,�k�k��,5.5,��
2017/07/27,02:50,0.960,1.507,1.012,1.796,1.243,0.517,0.945,0.876,�k�k��,5.2,��
2017/07/27,03:00,0.958,1.506,1.015,1.796,1.239,0.517,0.947,0.876,�k�k��,5.2,��
2017/07/27,03:10,0.958,1.504,1.013,1.797,1.237,0.517,0.945,0.877,�k,5.2,��
2017/07/27,03:20,0.960,1.504,1.012,1.797,1.242,0.518,0.948,0.877,�k,5.7,��
2017/07/27,03:30,0.960,1.504,1.014,1.795,1.240,0.520,0.945,0.876,�k�k��,4.9,��
2017/07/27,03:40,0.960,1.505,1.013,1.798,1.242,0.520,0.946,0.877,�k�k��,4.4,��
2017/07/27,03:50,0.959,1.505,1.013,1.796,1.243,0.520,0.947,0.878,�k�k��,5.1,��
2017/07/27,04:00,0.959,1.505,1.015,1.796,1.241,0.517,0.946,0.875,�k�k��,5.3,��
2017/07/27,04:10,0.959,1.505,1.013,1.796,1.240,0.516,0.946,0.876,�k�k��,5.5,��
2017/07/27,04:20,0.958,1.506,1.012,1.796,1.241,0.519,0.946,0.876,�k�k��,5.0,��
2017/07/27,04:30,0.959,1.506,1.013,1.796,1.243,0.517,0.947,0.877,�k�k��,5.5,��
2017/07/27,04:40,0.958,1.504,1.014,1.797,1.241,0.519,0.946,0.875,�k�k��,4.9,��
2017/07/27,04:50,0.958,1.502,1.011,1.797,1.240,0.516,0.946,0.877,�k�k��,5.0,��
2017/07/27,05:00,0.958,1.502,1.015,1.798,1.241,0.517,0.946,0.876,�k�k��,5.1,��
2017/07/27,05:10,0.956,1.505,1.016,1.793,1.241,0.517,0.946,0.876,�k,5.1,��
2017/07/27,05:20,0.960,1.504,1.014,1.796,1.244,0.517,0.947,0.877,�k�k��,4.6,��
2017/07/27,05:30,0.956,1.507,1.014,1.798,1.241,0.519,0.946,0.876,�k�k��,4.5,��
2017/07/27,05:40,0.959,1.503,1.013,1.798,1.237,0.517,0.947,0.877,�k�k��,4.3,��
2017/07/27,05:50,0.958,1.504,1.015,1.799,1.242,0.519,0.947,0.876,�k�k��,5.0,��
2017/07/27,06:00,0.958,1.503,1.015,1.797,1.242,0.518,0.946,0.874,�k�k��,4.6,��
2017/07/27,06:10,0.958,1.505,1.015,1.798,1.240,0.517,0.946,0.877,�k�k��,4.4,��
2017/07/27,06:20,0.959,1.506,1.012,1.799,1.243,0.517,0.945,0.876,�k�k��,4.8,��
2017/07/27,06:30,0.958,1.503,1.009,1.800,1.241,0.518,0.947,0.875,�k�k��,4.4,��
2017/07/27,06:40,0.957,1.505,1.012,1.798,1.241,0.516,0.946,0.875,�k�k��,4.0,��
2017/07/27,06:50,0.958,1.503,1.010,1.799,1.240,0.518,0.946,0.876,�k,3.6,��
2017/07/27,07:00,0.955,1.504,1.010,1.798,1.242,0.517,0.946,0.876,�k�k��,4.1,��
2017/07/27,07:10,0.958,1.505,1.010,1.798,1.242,0.517,0.943,0.876,�k,4.2,��
2017/07/27,07:20,0.956,1.503,1.012,1.800,1.240,0.515,0.944,0.873,�k,4.2,��
2017/07/27,07:30,0.956,1.504,1.010,1.799,1.243,0.517,0.946,0.876,�k�k��,3.3,��
2017/07/27,07:40,0.958,1.503,1.008,1.799,1.240,0.517,0.944,0.874,�k�k��,3.7,��
2017/07/27,07:50,0.958,1.502,1.008,1.796,1.243,0.517,0.946,0.876,�k�k��,3.8,��
2017/07/27,08:00,0.958,1.503,1.010,1.800,1.243,0.517,0.946,0.874,�k,4.7,��
2017/07/27,08:10,0.956,1.504,1.010,1.800,1.242,0.517,0.948,0.875,�k,3.9,��
2017/07/27,08:20,0.957,1.503,1.005,1.800,1.243,0.516,0.946,0.875,�k,5.4,��
2017/07/27,08:30,0.957,1.502,1.000,1.800,1.243,0.518,0.946,0.874,�k,5.3,��
2017/07/27,08:40,0.956,1.502,0.991,1.800,1.243,0.517,0.947,0.876,�k�k��,4.8,��
2017/07/27,08:50,0.959,1.503,0.996,1.800,1.242,0.517,0.946,0.873,�k,4.9,��
2017/07/27,09:00,0.959,1.504,1.002,1.799,1.242,0.518,0.948,0.872,�k�k��,4.3,��
2017/07/27,09:10,0.960,1.501,1.006,1.798,1.243,0.517,0.948,0.873,�k,4.7,��
2017/07/27,09:20,0.961,1.503,1.004,1.799,1.243,0.517,0.946,0.872,�k,4.1,��
2017/07/27,09:30,0.959,1.504,1.002,1.800,1.243,0.517,0.946,0.873,�k,4.8,��
2017/07/27,09:40,0.959,1.508,0.995,1.800,1.243,0.516,0.948,0.873,�k,5.2,��
2017/07/27,09:50,0.963,1.504,1.003,1.799,1.245,0.517,0.948,0.874,�k,4.4,��
2017/07/27,10:00,0.962,1.506,1.001,1.798,1.244,0.517,0.948,0.874,�k�k��,5.8,��
2017/07/27,10:10,0.962,1.506,1.003,1.797,1.245,0.519,0.948,0.874,�k�k��,4.4,��
2017/07/27,10:20,0.962,1.507,1.005,1.801,1.246,0.516,0.949,0.873,�k,4.6,��
2017/07/27,10:30,0.961,1.505,1.007,1.800,1.245,0.518,0.950,0.875,�k�k��,5.4,��
2017/07/27,10:40,0.963,1.509,1.006,1.799,1.244,0.518,0.949,0.875,�k�k��,4.7,��
2017/07/27,10:50,0.963,1.509,1.006,1.798,1.244,0.518,0.948,0.875,�k,4.7,��
2017/07/27,11:00,0.964,1.508,1.009,1.800,1.248,0.518,0.949,0.874,�k��,4.5,��
2017/07/27,11:10,0.961,1.509,1.006,1.801,1.246,0.520,0.948,0.875,�k�k��,5.8,��
2017/07/27,11:20,0.966,1.509,1.010,1.803,1.247,0.517,0.951,0.874,�k�k��,4.9,��
2017/07/27,11:30,0.963,1.509,1.007,1.801,1.245,0.517,0.946,0.874,�k�k��,6.3,��
2017/07/27,11:40,0.966,1.510,1.009,1.800,1.246,0.517,0.948,0.874,�k�k��,5.7,��
2017/07/27,11:50,0.965,1.512,1.008,1.800,1.249,0.518,0.948,0.874,�k�k��,5.6,��
2017/07/27,12:00,0.965,1.513,1.007,1.802,1.251,0.518,0.948,0.874,�k�k��,5.5,��
2017/07/27,12:10,0.965,1.508,1.003,1.802,1.247,0.518,0.949,0.876,�k�k��,5.7,��
2017/07/27,12:20,0.963,1.511,1.004,1.800,1.247,0.518,0.948,0.874,�k�k��,5.5,��
2017/07/27,12:30,0.966,1.512,1.002,1.804,1.247,0.518,0.950,0.875,�k�k��,5.1,��
2017/07/27,12:40,0.964,1.514,1.003,1.802,1.249,0.517,0.949,0.875,�k�k��,5.4,��
2017/07/27,12:50,0.963,1.515,1.007,1.800,1.249,0.518,0.949,0.875,�k�k��,5.2,��
2017/07/27,13:00,0.968,1.516,1.007,1.804,1.248,0.518,0.948,0.875,�k�k��,4.8,��
2017/07/27,13:10,0.967,1.512,1.005,1.804,1.250,0.517,0.949,0.876,�k�k��,4.4,��
2017/07/27,13:20,0.966,1.511,1.005,1.802,1.250,0.518,0.949,0.875,�k�k��,4.2,��
2017/07/27,13:30,0.966,1.513,1.007,1.802,1.251,0.519,0.950,0.874,�k�k��,4.0,��
2017/07/27,13:40,0.967,1.514,1.006,1.806,1.250,0.520,0.950,0.875,�k�k��,3.5,��
2017/07/27,13:50,0.967,1.513,1.006,1.806,1.251,0.519,0.948,0.874,�k�k��,3.3,��
2017/07/27,14:00,0.968,1.513,1.008,1.805,1.250,0.518,0.948,0.875,�k��,3.4,��
2017/07/27,14:10,0.967,1.513,1.009,1.805,1.253,0.518,0.950,0.874,�k�k��,4.0,��
2017/07/27,14:20,0.968,1.514,1.010,1.806,1.253,0.519,0.950,0.873,�k�k��,3.6,��
2017/07/27,14:30,0.966,1.515,1.012,1.806,1.252,0.519,0.950,0.875,�k�k��,4.2,��
2017/07/27,14:40,0.967,1.518,1.012,1.806,1.255,0.520,0.950,0.874,�k�k��,4.3,��
2017/07/27,14:50,0.970,1.517,1.013,1.805,1.253,0.520,0.949,0.876,�k,4.4,��
2017/07/27,15:00,0.967,1.519,1.010,1.807,1.253,0.519,0.950,0.876,�k�k��,3.4,��
2017/07/27,15:10,0.969,1.517,1.012,1.809,1.251,0.519,0.950,0.874,�k,4.5,��
2017/07/27,15:20,0.967,1.517,1.011,1.807,1.252,0.520,0.947,0.874,�k,3.5,��
2017/07/27,15:30,0.970,1.515,1.012,1.809,1.251,0.521,0.950,0.876,�k,3.3,��
2017/07/27,15:40,0.971,1.516,1.011,1.810,1.255,0.520,0.951,0.877,�k�k��,3.5,��
2017/07/27,15:50,0.969,1.520,1.010,1.808,1.253,0.519,0.951,0.874,�k,4.2,��
2017/07/27,16:00,0.968,1.516,1.012,1.808,1.255,0.520,0.950,0.874,�k,3.6,��
2017/07/27,16:10,0.970,1.516,1.011,1.809,1.255,0.520,0.950,0.875,�k�k��,2.6,��
2017/07/27,16:20,0.969,1.519,1.012,1.810,1.255,0.518,0.951,0.874,�k�k��,3.3,��
2017/07/27,16:30,0.968,1.520,1.011,1.812,1.255,0.520,0.952,0.878,�k,3.2,��
2017/07/27,16:40,0.967,1.520,1.015,1.809,1.256,0.519,0.950,0.876,�k,3.6,��
2017/07/27,16:50,0.968,1.519,1.015,1.813,1.256,0.520,0.953,0.875,�k�k��,3.7,��
2017/07/27,17:00,0.968,1.518,1.014,1.809,1.257,0.518,0.951,0.876,�k,3.6,��
2017/07/27,17:10,0.969,1.518,1.014,1.811,1.256,0.519,0.952,0.875,�k,3.2,��
2017/07/27,17:20,0.969,1.522,1.014,1.808,1.255,0.519,0.952,0.878,�k,3.2,��
2017/07/27,17:30,0.969,1.520,1.014,1.809,1.254,0.520,0.948,0.879,�k�k��,3.2,��
2017/07/27,17:40,0.968,1.518,1.014,1.810,1.256,0.519,0.950,0.877,�k,2.6,��
2017/07/27,17:50,0.970,1.520,1.014,1.813,1.257,0.520,0.952,0.877,�k,3.5,��
2017/07/27,18:00,0.968,1.519,1.016,1.809,1.255,0.519,0.949,0.876,�k,3.0,��
2017/07/27,18:10,0.968,1.518,1.016,1.810,1.252,0.520,0.952,0.877,�k,3.2,��
2017/07/27,18:20,0.967,1.519,1.017,1.810,1.257,0.518,0.951,0.876,�k,2.6,��
2017/07/27,18:30,0.970,1.519,1.015,1.812,1.258,0.519,0.950,0.879,�k,3.1,��
2017/07/27,18:40,0.969,1.521,1.017,1.811,1.256,0.519,0.950,0.879,�k�k��,2.9,��
2017/07/27,18:50,0.969,1.522,1.016,1.812,1.256,0.520,0.950,0.877,�k�k��,3.0,��
2017/07/27,19:00,0.968,1.521,1.014,1.812,1.258,0.520,0.950,0.877,�k�k��,2.3,��
2017/07/27,19:10,0.969,1.521,1.015,1.810,1.255,0.521,0.952,0.879,�k,2.9,��
2017/07/27,19:20,0.969,1.521,1.016,1.813,1.256,0.519,0.952,0.878,�k,2.3,��
2017/07/27,19:30,0.967,1.525,1.017,1.811,1.257,0.519,0.953,0.879,�k�k��,2.2,��
2017/07/27,19:40,0.968,1.522,1.019,1.809,1.257,0.521,0.952,0.879,�k,2.9,��
2017/07/27,19:50,0.971,1.523,1.016,1.811,1.260,0.519,0.953,0.878,�k,2.6,��
2017/07/27,20:00,0.970,1.524,1.017,1.812,1.256,0.519,0.951,0.878,�k,2.6,��
2017/07/27,20:10,0.972,1.521,1.016,1.812,1.259,0.520,0.952,0.881,�k,2.5,��
2017/07/27,20:20,0.970,1.523,1.015,1.810,1.255,0.521,0.951,0.877,�k�k��,2.3,��
2017/07/27,20:30,0.970,1.522,1.015,1.813,1.257,0.521,0.951,0.879,�k�k��,2.3,��
2017/07/27,20:40,0.971,1.521,1.016,1.811,1.257,0.519,0.951,0.881,�k�k��,2.9,��
2017/07/27,20:50,0.968,1.523,1.016,1.815,1.258,0.521,0.950,0.880,�k�k��,2.0,��
2017/07/27,21:00,0.971,1.521,1.016,1.813,1.253,0.521,0.950,0.879,�k�k��,1.7,��
2017/07/27,21:10,0.970,1.524,1.018,1.811,1.256,0.522,0.952,0.880,�k�k��,1.1,��
2017/07/27,21:20,0.971,1.523,1.018,1.811,1.256,0.519,0.953,0.881,�k�k��,1.2,��
2017/07/27,21:30,0.971,1.523,1.015,1.813,1.257,0.520,0.951,0.879,�k�k��,2.3,��
2017/07/27,21:40,0.971,1.526,1.017,1.811,1.257,0.521,0.952,0.879,�k�k��,1.9,��
2017/07/27,21:50,0.971,1.525,1.017,1.813,1.257,0.521,0.952,0.881,�k��,1.9,��
2017/07/27,22:00,0.969,1.523,1.018,1.812,1.257,0.520,0.950,0.879,�k��,2.0,��
2017/07/27,22:10,0.971,1.525,1.016,1.812,1.259,0.521,0.952,0.880,�k�k��,2.3,��
2017/07/27,22:20,0.972,1.525,1.017,1.813,1.258,0.522,0.953,0.879,�k�k��,2.9,��
2017/07/27,22:30,0.970,1.522,1.018,1.812,1.256,0.521,0.953,0.878,�k��,2.9,��
2017/07/27,22:40,0.971,1.523,1.018,1.812,1.257,0.521,0.950,0.879,�k��,3.0,��
2017/07/27,22:50,0.971,1.523,1.016,1.814,1.258,0.521,0.951,0.881,�k��,2.9,��
2017/07/27,23:00,0.970,1.526,1.018,1.817,1.257,0.520,0.954,0.880,�k�k��,3.4,��
2017/07/27,23:10,0.969,1.523,1.016,1.813,1.256,0.521,0.951,0.878,�k�k��,3.8,�L
2017/07/27,23:20,0.970,1.524,1.016,1.813,1.256,0.520,0.949,0.880,�k�k��,3.3,�L
2017/07/27,23:30,0.971,1.522,1.017,1.811,1.257,0.522,0.952,0.879,�k�k��,3.2,��
2017/07/27,23:40,0.970,1.525,1.015,1.811,1.256,0.521,0.951,0.880,�k�k��,3.7,��
2017/07/27,23:50,0.972,1.523,1.017,1.814,1.255,0.520,0.950,0.880,�k�k��,3.1,�L
